UAE7DN LOWW-OMDB

Flight info

Callsign UAE7DN
Flight time N/A
Altitude 35000
Route ARSIN DCT NALOX DCT SUNOR DCT OSDUK DCT AKIKA DCT DIMIS DCT IPTES UL604 SALUN N705 MMA P751 DASUM Y234 FYM M872 BDB Y214 SIKNU/N0484F370 Y214 RAPMA DCT KUVSO DCT KATIT DCT PEKEM M628 RIGIL G783 ELUDA/N0476F350 G783 ASPED Q308 KIPOK Q568 IMPED
Aircraft B77W/H-SDE1E2E3FGHIJ2J3J4J5M1RWXY/LB1D1

Departure

Time N/A
Airport Vienna International Airport (LOWW)

Arrival

Time 2026-04-23 15:08
Airport Dubai International Airport (OMDB)
Time Latitude Longitude Altitude Speed Heading
2026-04-23 13:13 24.38415 41.33186 34903 ft 553 kts 99°
2026-04-23 13:14 24.37969 41.37378 34898 ft 553 kts 99°
2026-04-23 13:14 24.37073 41.45755 34899 ft 553 kts 99°
2026-04-23 13:15 24.36171 41.54139 34898 ft 554 kts 99°
2026-04-23 13:15 24.35266 41.62525 34901 ft 553 kts 99°
2026-04-23 13:16 24.34356 41.70899 34895 ft 553 kts 99°
2026-04-23 13:16 24.33441 41.79270 34885 ft 553 kts 99°
2026-04-23 13:17 24.31902 41.87487 34881 ft 548 kts 110°
2026-04-23 13:17 24.29735 41.95494 34882 ft 548 kts 110°
2026-04-23 13:18 24.27594 42.03344 34884 ft 549 kts 110°
2026-04-23 13:18 24.25460 42.11355 34879 ft 549 kts 110°
2026-04-23 13:19 24.23330 42.19425 34885 ft 550 kts 110°
2026-04-23 13:19 24.21205 42.27463 34881 ft 549 kts 110°
2026-04-23 13:20 24.19069 42.35498 34875 ft 549 kts 110°
2026-04-23 13:20 24.16919 42.43557 35083 ft 554 kts 110°
2026-04-23 13:20 24.15841 42.47600 35424 ft 553 kts 110°
2026-04-23 13:21 24.14764 42.51634 35808 ft 551 kts 110°
2026-04-23 13:21 24.13689 42.55652 36174 ft 549 kts 110°
2026-04-23 13:21 24.12616 42.59657 36480 ft 549 kts 110°
2026-04-23 13:21 24.11539 42.63668 36682 ft 550 kts 110°
2026-04-23 13:22 24.10458 42.67689 36814 ft 552 kts 110°
2026-04-23 13:22 24.08303 42.75711 36861 ft 544 kts 110°
2026-04-23 13:23 24.06182 42.83589 36862 ft 537 kts 111°
2026-04-23 13:23 24.04060 42.91434 36867 ft 538 kts 111°
2026-04-23 13:24 24.01938 42.99288 36864 ft 539 kts 111°
2026-04-23 13:24 23.99868 43.06933 36867 ft 539 kts 111°
2026-04-23 13:25 23.97734 43.14803 36864 ft 540 kts 111°
2026-04-23 13:25 23.95590 43.22678 36859 ft 540 kts 111°
2026-04-23 13:26 23.93445 43.30548 36863 ft 540 kts 111°
2026-04-23 13:26 23.91300 43.38411 36856 ft 540 kts 111°
2026-04-23 13:27 23.89513 43.44943 36858 ft 540 kts 111°
2026-04-23 13:27 23.87358 43.52792 36863 ft 539 kts 111°
2026-04-23 13:28 23.85200 43.60640 36860 ft 539 kts 111°
2026-04-23 13:28 23.83043 43.68484 36865 ft 539 kts 111°
2026-04-23 13:29 23.80878 43.76330 36863 ft 539 kts 111°
2026-04-23 13:29 23.78709 43.84175 36859 ft 539 kts 111°
2026-04-23 13:30 23.77066 43.92131 36864 ft 545 kts 100°
2026-04-23 13:30 23.76452 44.00237 36869 ft 546 kts 96°
2026-04-23 13:31 23.75920 44.08491 36859 ft 546 kts 97°
2026-04-23 13:31 23.75332 44.16757 36860 ft 546 kts 97°
2026-04-23 13:32 23.74707 44.25012 36864 ft 546 kts 97°
2026-04-23 13:32 23.74073 44.33267 36862 ft 546 kts 97°
2026-04-23 13:33 23.73436 44.41524 36861 ft 546 kts 97°
2026-04-23 13:33 23.72799 44.49779 36861 ft 546 kts 97°
2026-04-23 13:34 23.72159 44.58025 36873 ft 545 kts 97°
2026-04-23 13:34 23.71514 44.66259 36867 ft 545 kts 97°
2026-04-23 13:35 23.70867 44.74486 36870 ft 544 kts 97°
2026-04-23 13:35 23.70213 44.82716 36870 ft 544 kts 97°
2026-04-23 13:36 23.69557 44.90937 36874 ft 544 kts 97°
2026-04-23 13:36 23.68893 44.99159 36883 ft 544 kts 97°
2026-04-23 13:37 23.68235 45.07230 36883 ft 544 kts 97°
2026-04-23 13:37 23.67564 45.15455 36878 ft 545 kts 97°
2026-04-23 13:38 23.66887 45.23680 36890 ft 544 kts 97°
2026-04-23 13:38 23.66209 45.31909 36891 ft 544 kts 97°
2026-04-23 13:39 23.65528 45.40131 36888 ft 545 kts 97°
2026-04-23 13:39 23.64841 45.48373 36903 ft 546 kts 97°
2026-04-23 13:40 23.64147 45.56617 36895 ft 546 kts 97°
2026-04-23 13:40 23.63453 45.64853 36897 ft 546 kts 97°
2026-04-23 13:41 23.62750 45.73111 36906 ft 547 kts 97°
2026-04-23 13:41 23.62044 45.81367 36906 ft 547 kts 97°
2026-04-23 13:42 23.61340 45.89559 36906 ft 546 kts 97°
2026-04-23 13:42 23.60629 45.97806 36927 ft 546 kts 97°
2026-04-23 13:43 23.59925 46.05896 36916 ft 547 kts 97°
2026-04-23 13:43 23.59198 46.14209 36932 ft 547 kts 97°
2026-04-23 13:44 23.58477 46.22410 36914 ft 548 kts 97°
2026-04-23 13:44 23.57745 46.30672 36926 ft 547 kts 97°
2026-04-23 13:45 23.57009 46.38927 36892 ft 547 kts 97°
2026-04-23 13:45 23.56269 46.47164 36894 ft 546 kts 97°
2026-04-23 13:46 23.55531 46.55411 36883 ft 546 kts 97°
2026-04-23 13:46 23.54772 46.63638 36891 ft 546 kts 97°
2026-04-23 13:47 23.54009 46.71855 36897 ft 545 kts 97°
2026-04-23 13:47 23.53247 46.80059 36917 ft 544 kts 97°
2026-04-23 13:48 23.52479 46.88256 36930 ft 544 kts 97°
2026-04-23 13:48 23.51706 46.96459 36933 ft 545 kts 97°
2026-04-23 13:49 23.50948 47.04472 36929 ft 547 kts 97°
2026-04-23 13:49 23.50164 47.12726 36931 ft 547 kts 97°
2026-04-23 13:50 23.49376 47.20974 36925 ft 548 kts 97°
2026-04-23 13:50 23.48582 47.29224 36915 ft 548 kts 97°
2026-04-23 13:51 23.47784 47.37485 36920 ft 548 kts 97°
2026-04-23 13:51 23.46982 47.45741 36913 ft 548 kts 97°
2026-04-23 13:52 23.46177 47.53972 36906 ft 547 kts 97°
2026-04-23 13:52 23.45373 47.62236 36909 ft 548 kts 97°
2026-04-23 13:53 23.44567 47.70480 36915 ft 548 kts 97°
2026-04-23 13:53 23.43757 47.78731 36905 ft 548 kts 97°
2026-04-23 13:54 23.42942 47.86979 36907 ft 547 kts 97°
2026-04-23 13:54 23.42123 47.95218 36900 ft 547 kts 97°
2026-04-23 13:55 23.41316 48.03294 36914 ft 547 kts 97°
2026-04-23 13:55 23.40494 48.11472 36909 ft 547 kts 97°
2026-04-23 13:56 23.39664 48.19708 36909 ft 547 kts 97°
2026-04-23 13:56 23.38827 48.27949 36912 ft 548 kts 97°
2026-04-23 13:57 23.38065 48.36192 36908 ft 548 kts 94°
2026-04-23 13:57 23.37718 48.44477 36908 ft 548 kts 92°
2026-04-23 13:58 23.37441 48.52757 36910 ft 548 kts 92°
2026-04-23 13:58 23.37128 48.61041 36901 ft 547 kts 92°
2026-04-23 13:59 23.36786 48.69307 36914 ft 546 kts 92°
2026-04-23 13:59 23.36438 48.77560 36910 ft 546 kts 92°
2026-04-23 14:00 23.36146 48.84475 36903 ft 546 kts 92°
2026-04-23 14:00 23.35738 48.94061 36910 ft 545 kts 92°
2026-04-23 14:01 23.35390 49.02135 36905 ft 545 kts 92°
2026-04-23 14:01 23.34755 49.10336 36905 ft 544 kts 99°
2026-04-23 14:02 23.33574 49.18456 36905 ft 543 kts 100°
2026-04-23 14:02 23.32343 49.26562 36902 ft 543 kts 100°
2026-04-23 14:03 23.31140 49.34673 36902 ft 543 kts 99°
2026-04-23 14:03 23.29965 49.42780 36904 ft 543 kts 99°
2026-04-23 14:04 23.28792 49.50890 36902 ft 542 kts 99°
2026-04-23 14:04 23.27611 49.58992 36885 ft 542 kts 99°
2026-04-23 14:05 23.26425 49.67084 36876 ft 542 kts 99°
2026-04-23 14:05 23.25237 49.75165 36881 ft 541 kts 99°
2026-04-23 14:06 23.24045 49.83246 36879 ft 541 kts 99°
2026-04-23 14:06 23.22850 49.91317 36880 ft 541 kts 99°
2026-04-23 14:07 23.21646 49.99405 36881 ft 542 kts 99°
2026-04-23 14:07 23.19860 50.11368 36880 ft 541 kts 99°
2026-04-23 14:08 23.18650 50.19436 36877 ft 541 kts 99°
2026-04-23 14:08 23.17443 50.27446 36874 ft 541 kts 99°
2026-04-23 14:09 23.16226 50.35502 36881 ft 540 kts 99°
2026-04-23 14:09 23.15004 50.43559 36877 ft 540 kts 99°
2026-04-23 14:10 23.13780 50.51600 36879 ft 540 kts 99°
2026-04-23 14:10 23.12553 50.59645 36878 ft 540 kts 99°
2026-04-23 14:11 23.11321 50.67681 36874 ft 539 kts 99°
2026-04-23 14:11 23.10088 50.75715 36873 ft 539 kts 99°
2026-04-23 14:12 23.08848 50.83740 36869 ft 539 kts 99°
2026-04-23 14:12 23.07607 50.91755 36872 ft 539 kts 99°
2026-04-23 14:13 23.06366 50.99777 36869 ft 539 kts 99°
2026-04-23 14:13 23.05138 51.07630 36870 ft 539 kts 99°
2026-04-23 14:14 23.04094 51.14292 36873 ft 538 kts 99°
2026-04-23 14:14 23.02840 51.22296 36867 ft 538 kts 99°
2026-04-23 14:15 23.01580 51.30293 36872 ft 538 kts 99°
2026-04-23 14:15 23.00316 51.38298 36863 ft 538 kts 99°
2026-04-23 14:16 22.99051 51.46285 36858 ft 538 kts 99°
2026-04-23 14:16 22.97779 51.54281 36870 ft 537 kts 99°
2026-04-23 14:17 22.96505 51.62270 36871 ft 537 kts 99°
2026-04-23 14:17 22.95229 51.70252 36863 ft 537 kts 99°
2026-04-23 14:18 22.93943 51.78250 36860 ft 538 kts 99°
2026-04-23 14:18 22.92655 51.86238 36862 ft 538 kts 99°
2026-04-23 14:19 22.91366 51.94224 36863 ft 538 kts 99°
2026-04-23 14:19 22.90105 52.02001 36859 ft 537 kts 99°
2026-04-23 14:20 22.88815 52.09922 36862 ft 537 kts 99°
2026-04-23 14:20 22.87515 52.17894 36861 ft 537 kts 99°
2026-04-23 14:21 22.86212 52.25860 36862 ft 536 kts 99°
2026-04-23 14:21 22.84904 52.33820 36855 ft 536 kts 99°
2026-04-23 14:22 22.83592 52.41777 36862 ft 536 kts 99°
2026-04-23 14:22 22.82389 52.49747 36851 ft 536 kts 95°
2026-04-23 14:23 22.82063 52.57801 36854 ft 534 kts 89°
2026-04-23 14:23 22.81931 52.65850 36849 ft 534 kts 89°
2026-04-23 14:24 22.81770 52.73897 36849 ft 534 kts 90°
2026-04-23 14:24 22.81564 52.81955 36846 ft 535 kts 90°
2026-04-23 14:25 22.81344 52.90008 36837 ft 535 kts 90°
2026-04-23 14:25 22.81121 52.98060 36843 ft 535 kts 90°
2026-04-23 14:26 22.80900 53.05942 36844 ft 534 kts 90°
2026-04-23 14:26 22.80672 53.13986 36840 ft 534 kts 90°
2026-04-23 14:27 22.80440 53.22034 36844 ft 534 kts 90°
2026-04-23 14:27 22.80204 53.30076 36840 ft 534 kts 90°
2026-04-23 14:28 22.79964 53.38124 36846 ft 534 kts 90°
2026-04-23 14:28 22.79721 53.46169 36848 ft 534 kts 90°
2026-04-23 14:29 22.79472 53.54214 36844 ft 534 kts 90°
2026-04-23 14:29 22.79222 53.62212 36839 ft 534 kts 90°
2026-04-23 14:30 22.78966 53.70257 36836 ft 534 kts 90°
2026-04-23 14:30 22.78705 53.78304 36846 ft 534 kts 90°
2026-04-23 14:31 22.78440 53.86349 36837 ft 534 kts 90°
2026-04-23 14:31 22.78174 53.94396 36839 ft 534 kts 89°
2026-04-23 14:32 22.78554 54.02222 36851 ft 530 kts 79°
2026-04-23 14:32 22.80028 54.10000 36847 ft 526 kts 73°
2026-04-23 14:33 22.81670 54.17724 36843 ft 526 kts 73°
2026-04-23 14:33 22.83274 54.25461 36840 ft 526 kts 73°
2026-04-23 14:34 22.84841 54.33206 36844 ft 526 kts 74°
2026-04-23 14:34 22.86397 54.40954 36839 ft 526 kts 74°
2026-04-23 14:35 22.87951 54.48697 36844 ft 525 kts 74°
2026-04-23 14:35 22.89503 54.56442 36811 ft 526 kts 74°
2026-04-23 14:36 22.91049 54.64190 36813 ft 525 kts 74°
2026-04-23 14:36 22.92591 54.71932 36816 ft 525 kts 74°
2026-04-23 14:37 22.94132 54.79675 36812 ft 525 kts 74°
2026-04-23 14:37 22.95667 54.87414 36817 ft 525 kts 74°
2026-04-23 14:38 22.97198 54.95162 36819 ft 525 kts 74°
2026-04-23 14:38 22.98685 55.02709 36815 ft 525 kts 74°
2026-04-23 14:39 23.00206 55.10443 36816 ft 524 kts 74°
2026-04-23 14:39 23.01968 55.18070 36807 ft 513 kts 60°
2026-04-23 14:40 23.03789 55.21319 36834 ft 497 kts 43°
2026-04-23 14:40 23.06250 55.23882 36843 ft 486 kts 30°
2026-04-23 14:40 23.09062 55.25865 36817 ft 479 kts 19°
2026-04-23 14:40 23.12128 55.27125 36832 ft 466 kts
2026-04-23 14:41 23.18454 55.28843 36835 ft 472 kts
2026-04-23 14:41 23.24818 55.30628 36814 ft 470 kts
2026-04-23 14:42 23.31091 55.32464 36819 ft 465 kts
2026-04-23 14:42 23.37332 55.34301 36819 ft 464 kts
2026-04-23 14:43 23.43566 55.36134 36829 ft 464 kts
2026-04-23 14:43 23.49809 55.37972 36819 ft 465 kts
2026-04-23 14:44 23.56057 55.39817 36829 ft 466 kts
2026-04-23 14:44 23.62312 55.41678 36828 ft 467 kts
2026-04-23 14:45 23.68525 55.43532 36531 ft 456 kts
2026-04-23 14:45 23.71572 55.44442 35976 ft 453 kts
2026-04-23 14:45 23.74627 55.45349 35223 ft 456 kts
2026-04-23 14:46 23.77700 55.46260 34454 ft 460 kts
2026-04-23 14:46 23.80787 55.47180 33815 ft 460 kts
2026-04-23 14:46 23.83861 55.48099 33338 ft 456 kts
2026-04-23 14:46 23.86899 55.49007 32910 ft 450 kts
2026-04-23 14:47 23.89905 55.49902 32409 ft 447 kts
2026-04-23 14:47 23.92901 55.50791 31847 ft 445 kts
2026-04-23 14:47 23.95845 55.51665 31284 ft 444 kts 10°
2026-04-23 14:47 23.98788 55.52720 30765 ft 447 kts 18°
2026-04-23 14:48 24.01544 55.54247 30278 ft 449 kts 26°
2026-04-23 14:48 24.04133 55.56171 29782 ft 452 kts 35°
2026-04-23 14:48 24.06498 55.58434 29280 ft 451 kts 38°
2026-04-23 14:48 24.08803 55.60757 28761 ft 450 kts 39°
2026-04-23 14:49 24.11087 55.63081 28258 ft 448 kts 39°
2026-04-23 14:49 24.13373 55.65395 27772 ft 445 kts 39°
2026-04-23 14:49 24.15648 55.67678 27313 ft 443 kts 39°
2026-04-23 14:49 24.17919 55.69942 26863 ft 440 kts 39°
2026-04-23 14:50 24.19420 55.71434 26552 ft 439 kts 39°
2026-04-23 14:50 24.22437 55.74428 25932 ft 436 kts 39°
2026-04-23 14:50 24.24678 55.76650 25462 ft 434 kts 39°
2026-04-23 14:50 24.26914 55.78868 24995 ft 433 kts 39°
2026-04-23 14:51 24.29135 55.81074 24563 ft 430 kts 39°
2026-04-23 14:51 24.31342 55.83269 24127 ft 428 kts 40°
2026-04-23 14:51 24.33542 55.85458 23674 ft 426 kts 40°
2026-04-23 14:51 24.35729 55.87634 23238 ft 423 kts 40°
2026-04-23 14:52 24.37900 55.89795 22849 ft 420 kts 40°
2026-04-23 14:52 24.40051 55.91942 22461 ft 416 kts 40°
2026-04-23 14:52 24.42185 55.94075 22088 ft 413 kts 40°
2026-04-23 14:52 24.44301 55.96190 21681 ft 410 kts 40°
2026-04-23 14:53 24.46401 55.98291 21292 ft 407 kts 40°
2026-04-23 14:53 24.48422 56.00263 20883 ft 402 kts 36°
2026-04-23 14:53 24.50796 56.01834 20374 ft 394 kts 19°
2026-04-23 14:53 24.53337 56.02692 19645 ft 375 kts
2026-04-23 14:54 24.55899 56.03018 18596 ft 367 kts
2026-04-23 14:54 24.58442 56.03224 17521 ft 365 kts
2026-04-23 14:54 24.60962 56.03439 16412 ft 363 kts
2026-04-23 14:54 24.63481 56.03660 15271 ft 362 kts
2026-04-23 14:55 24.65987 56.03886 14169 ft 360 kts
2026-04-23 14:55 24.68515 56.04115 13383 ft 368 kts
2026-04-23 14:55 24.71051 56.04351 13025 ft 363 kts
2026-04-23 14:55 24.73544 56.04583 12752 ft 356 kts
2026-04-23 14:56 24.76001 56.04810 12421 ft 353 kts
2026-04-23 14:56 24.78440 56.05037 12021 ft 351 kts
2026-04-23 14:56 24.80825 56.04923 11398 ft 344 kts 341°
2026-04-23 14:56 24.82875 56.03706 10724 ft 342 kts 315°
2026-04-23 14:57 24.84372 56.01693 10022 ft 340 kts 304°
2026-04-23 14:57 24.85805 55.99545 9397 ft 346 kts 305°
2026-04-23 14:57 24.87229 55.97447 9089 ft 347 kts 305°
2026-04-23 14:57 24.88682 55.95307 8862 ft 351 kts 306°
2026-04-23 14:58 24.90151 55.93142 8615 ft 354 kts 306°
2026-04-23 14:58 24.91621 55.90977 8369 ft 352 kts 306°
2026-04-23 14:58 24.93086 55.88822 8105 ft 350 kts 306°
2026-04-23 14:58 24.94540 55.86680 7862 ft 348 kts 306°
2026-04-23 14:59 24.95987 55.84548 7613 ft 346 kts 306°
2026-04-23 14:59 24.97424 55.82428 7366 ft 345 kts 306°
2026-04-23 14:59 24.98860 55.80314 7112 ft 344 kts 306°
2026-04-23 14:59 25.00278 55.78225 6874 ft 342 kts 306°
2026-04-23 15:00 25.01659 55.76188 6561 ft 317 kts 306°
2026-04-23 15:00 25.02927 55.74318 6269 ft 291 kts 306°
2026-04-23 15:00 25.04091 55.72598 5977 ft 270 kts 306°
2026-04-23 15:00 25.05176 55.70995 5671 ft 252 kts 306°
2026-04-23 15:01 25.06187 55.69503 5384 ft 235 kts 306°
2026-04-23 15:01 25.07154 55.68075 5140 ft 231 kts 306°
2026-04-23 15:01 25.08108 55.66663 4879 ft 229 kts 307°
2026-04-23 15:01 25.09058 55.65260 4631 ft 227 kts 308°
2026-04-23 15:02 25.09687 55.64340 4461 ft 226 kts 306°
2026-04-23 15:02 25.10869 55.62432 4129 ft 225 kts 303°
2026-04-23 15:02 25.11696 55.60976 3879 ft 224 kts 302°
2026-04-23 15:02 25.12507 55.59520 3626 ft 221 kts 302°
2026-04-23 15:03 25.13297 55.58094 3365 ft 216 kts 302°
2026-04-23 15:03 25.13809 55.57167 3239 ft 212 kts 302°
2026-04-23 15:03 25.14579 55.55778 3110 ft 212 kts 302°
2026-04-23 15:03 25.15346 55.54398 3050 ft 211 kts 302°
2026-04-23 15:04 25.16117 55.53003 2807 ft 213 kts 302°
2026-04-23 15:04 25.16877 55.51631 2556 ft 206 kts 302°
2026-04-23 15:04 25.17612 55.50301 2263 ft 198 kts 302°
2026-04-23 15:04 25.18302 55.49054 2000 ft 183 kts 302°
2026-04-23 15:05 25.18938 55.47907 1768 ft 168 kts 302°
2026-04-23 15:05 25.19530 55.46840 1562 ft 158 kts 302°
2026-04-23 15:05 25.20079 55.45845 1398 ft 149 kts 302°
2026-04-23 15:05 25.20625 55.44858 1175 ft 152 kts 302°
2026-04-23 15:06 25.21168 55.43877 958 ft 147 kts 304°
2026-04-23 15:06 25.21695 55.42930 777 ft 145 kts 304°
2026-04-23 15:06 25.22222 55.41973 592 ft 147 kts 303°
2026-04-23 15:06 25.22754 55.40997 413 ft 148 kts 302°
2026-04-23 15:07 25.23282 55.40020 218 ft 147 kts 303°
2026-04-23 15:07 25.23819 55.39064 46 ft 146 kts 303°
2026-04-23 15:07 25.24303 55.38204 32 ft 94 kts 301°
2026-04-23 15:07 25.24600 55.37667 27 ft 75 kts 300°
2026-04-23 15:08 25.24778 55.37185 29 ft 51 kts 274°
2026-04-23 15:08 25.24782 55.37101 28 ft 1 kts 272°
2026-04-23 15:08 25.24785 55.37029 27 ft 23 kts 276°
2026-04-23 15:09 25.24894 55.36664 29 ft 25 kts 296°
2026-04-23 15:09 25.24951 55.36538 31 ft 13 kts 267°
2026-04-23 15:09 25.24877 55.36489 29 ft 13 kts 198°
2026-04-23 15:09 25.24812 55.36446 28 ft 5 kts 214°
2026-04-23 15:10 25.24805 55.36441 29 ft 1 kts 213°
2026-04-23 15:10 25.24803 55.36439 26 ft 0 kts 213°